Time,TemperatureF,DewpointF,PressureIn,WindDirection,WindDirectionDegrees,WindSpeedMPH,WindSpeedGustMPH,Humidity,HourlyPrecipIn,Conditions,Clouds,dailyrainin,SoftwareType,DateUTC
2016-02-08 00:04:00,34.7,25.9,30.54,North,0,0.0,0.0,70,0.00,,,0.00,WUHU216HW,2016-02-08 08:04:00,
2016-02-08 00:09:00,34.6,26.1,30.54,North,0,0.0,0.0,71,0.00,,,0.00,WUHU216HW,2016-02-08 08:09:00,
2016-02-08 00:14:00,34.6,26.1,30.54,North,0,0.0,0.0,71,0.00,,,0.00,WUHU216HW,2016-02-08 08:14:00,
2016-02-08 00:19:00,34.4,25.9,30.54,North,0,0.0,0.0,71,0.00,,,0.00,WUHU216HW,2016-02-08 08:19:00,
2016-02-08 00:24:00,34.4,25.9,30.54,North,0,0.0,0.0,71,0.00,,,0.00,WUHU216HW,2016-02-08 08:24:00,
2016-02-08 00:29:00,34.4,25.9,30.54,North,0,0.0,0.0,71,0.00,,,0.00,WUHU216HW,2016-02-08 08:29:00,
2016-02-08 00:39:00,34.4,25.9,30.53,North,0,0.0,0.0,71,0.00,,,0.00,WUHU216HW,2016-02-08 08:39:00,
2016-02-08 00:44:00,34.2,25.4,30.53,North,0,0.0,0.0,70,0.00,,,0.00,WUHU216HW,2016-02-08 08:44:00,
2016-02-08 00:49:00,34.2,25.4,30.53,North,0,0.0,0.0,70,0.00,,,0.00,WUHU216HW,2016-02-08 08:49:00,
2016-02-08 00:54:00,34.2,25.4,30.53,North,0,0.0,0.0,70,0.00,,,0.00,WUHU216HW,2016-02-08 08:54:00,
2016-02-08 00:59:00,34.2,25.4,30.53,North,0,0.0,0.0,70,0.00,,,0.00,WUHU216HW,2016-02-08 08:59:00,
2016-02-08 01:04:00,34.0,25.2,30.53,North,0,0.0,0.0,70,0.00,,,0.00,WUHU216HW,2016-02-08 09:04:00,
2016-02-08 01:09:00,33.8,25.4,30.53,North,0,0.0,0.0,71,0.00,,,0.00,WUHU216HW,2016-02-08 09:09:00,
2016-02-08 01:14:00,33.7,25.2,30.53,North,0,0.0,0.0,71,0.00,,,0.00,WUHU216HW,2016-02-08 09:14:00,
2016-02-08 01:19:00,33.5,25.0,30.53,North,0,0.0,0.0,71,0.00,,,0.00,WUHU216HW,2016-02-08 09:19:00,
2016-02-08 01:24:00,33.5,25.0,30.52,North,0,0.0,0.0,71,0.00,,,0.00,WUHU216HW,2016-02-08 09:24:00,
2016-02-08 01:29:00,33.3,24.8,30.52,North,0,0.0,0.0,71,0.00,,,0.00,WUHU216HW,2016-02-08 09:29:00,
2016-02-08 01:34:00,33.3,24.8,30.53,North,0,0.0,0.0,71,0.00,,,0.00,WUHU216HW,2016-02-08 09:34:00,
2016-02-08 01:39:00,33.1,24.7,30.52,North,0,0.0,0.0,71,0.00,,,0.00,WUHU216HW,2016-02-08 09:39:00,
2016-02-08 01:44:00,33.1,24.7,30.53,North,0,0.0,0.0,71,0.00,,,0.00,WUHU216HW,2016-02-08 09:44:00,
2016-02-08 01:49:00,32.9,24.8,30.53,North,0,0.0,0.0,72,0.00,,,0.00,WUHU216HW,2016-02-08 09:49:00,
2016-02-08 01:54:00,32.9,24.8,30.53,North,0,0.0,0.0,72,0.00,,,0.00,WUHU216HW,2016-02-08 09:54:00,
2016-02-08 01:59:00,32.9,24.8,30.52,North,0,0.0,0.0,72,0.00,,,0.00,WUHU216HW,2016-02-08 09:59:00,
2016-02-08 02:04:00,32.8,24.7,30.53,North,0,0.0,0.0,72,0.00,,,0.00,WUHU216HW,2016-02-08 10:04:00,
2016-02-08 02:09:00,32.8,24.7,30.52,North,0,0.0,0.0,72,0.00,,,0.00,WUHU216HW,2016-02-08 10:09:00,
2016-02-08 02:14:00,32.8,24.7,30.52,North,0,0.0,0.0,72,0.00,,,0.00,WUHU216HW,2016-02-08 10:14:00,
2016-02-08 02:19:00,32.8,24.7,30.52,North,0,0.0,0.0,72,0.00,,,0.00,WUHU216HW,2016-02-08 10:19:00,
2016-02-08 02:24:00,32.4,24.4,30.52,North,0,0.0,0.0,72,0.00,,,0.00,WUHU216HW,2016-02-08 10:24:00,
2016-02-08 02:29:00,32.2,24.6,30.52,North,0,0.0,0.0,73,0.00,,,0.00,WUHU216HW,2016-02-08 10:29:00,
2016-02-08 02:34:00,32.0,24.4,30.52,North,0,0.0,0.0,73,0.00,,,0.00,WUHU216HW,2016-02-08 10:34:00,
2016-02-08 02:39:00,32.0,24.4,30.52,North,0,0.0,0.0,73,0.00,,,0.00,WUHU216HW,2016-02-08 10:39:00,
2016-02-08 02:49:00,32.0,24.4,30.51,North,0,0.0,0.0,73,0.00,,,0.00,WUHU216HW,2016-02-08 10:49:00,
2016-02-08 02:54:00,31.9,24.2,30.51,North,0,0.0,0.0,73,0.00,,,0.00,WUHU216HW,2016-02-08 10:54:00,
2016-02-08 02:59:00,31.5,24.9,30.51,North,0,0.0,0.0,76,0.00,,,0.00,WUHU216HW,2016-02-08 10:59:00,
2016-02-08 03:04:00,31.3,24.7,30.51,North,0,0.0,0.0,76,0.00,,,0.00,WUHU216HW,2016-02-08 11:04:00,
2016-02-08 03:09:00,31.3,24.7,30.51,North,0,0.0,0.0,76,0.00,,,0.00,WUHU216HW,2016-02-08 11:09:00,
2016-02-08 03:19:00,31.1,24.1,30.52,North,0,0.0,0.0,75,0.00,,,0.00,WUHU216HW,2016-02-08 11:19:00,
2016-02-08 03:24:00,31.1,24.1,30.52,North,0,0.0,0.0,75,0.00,,,0.00,WUHU216HW,2016-02-08 11:24:00,
2016-02-08 03:29:00,31.0,24.3,30.51,North,0,0.0,0.0,76,0.00,,,0.00,WUHU216HW,2016-02-08 11:29:00,
2016-02-08 03:34:00,30.8,24.1,30.51,North,0,0.0,0.0,76,0.00,,,0.00,WUHU216HW,2016-02-08 11:34:00,
2016-02-08 03:44:00,30.6,23.6,30.51,North,0,0.0,0.0,75,0.00,,,0.00,WUHU216HW,2016-02-08 11:44:00,
2016-02-08 03:54:00,30.4,23.8,30.51,North,0,0.0,0.0,76,0.00,,,0.00,WUHU216HW,2016-02-08 11:54:00,
2016-02-08 03:59:00,30.2,23.6,30.51,North,0,0.0,0.0,76,0.00,,,0.00,WUHU216HW,2016-02-08 11:59:00,
2016-02-08 04:04:00,30.1,23.4,30.51,North,0,0.0,0.0,76,0.00,,,0.00,WUHU216HW,2016-02-08 12:04:00,
2016-02-08 04:09:00,30.1,23.7,30.51,North,0,0.0,0.0,77,0.00,,,0.00,WUHU216HW,2016-02-08 12:09:00,
2016-02-08 04:14:00,30.1,23.7,30.52,North,0,0.0,0.0,77,0.00,,,0.00,WUHU216HW,2016-02-08 12:14:00,
2016-02-08 04:19:00,30.1,23.7,30.51,North,0,0.0,0.0,77,0.00,,,0.00,WUHU216HW,2016-02-08 12:19:00,
2016-02-08 04:24:00,29.9,23.9,30.51,North,0,0.0,0.0,78,0.00,,,0.00,WUHU216HW,2016-02-08 12:24:00,
2016-02-08 04:29:00,29.7,23.3,30.52,North,0,0.0,0.0,77,0.00,,,0.00,WUHU216HW,2016-02-08 12:29:00,
2016-02-08 04:44:00,29.5,23.8,30.52,North,0,0.0,0.0,79,0.00,,,0.00,WUHU216HW,2016-02-08 12:44:00,
2016-02-08 04:49:00,29.3,23.3,30.52,North,0,0.0,0.0,78,0.00,,,0.00,WUHU216HW,2016-02-08 12:49:00,
2016-02-08 04:59:00,29.3,23.3,30.52,North,0,0.0,0.0,78,0.00,,,0.00,WUHU216HW,2016-02-08 12:59:00,
2016-02-08 05:04:00,29.3,23.3,30.52,North,0,0.0,0.0,78,0.00,,,0.00,WUHU216HW,2016-02-08 13:04:00,
2016-02-08 05:09:00,29.3,23.3,30.52,North,0,0.0,0.0,78,0.00,,,0.00,WUHU216HW,2016-02-08 13:09:00,
2016-02-08 05:14:00,29.3,23.3,30.52,North,0,0.0,0.0,78,0.00,,,0.00,WUHU216HW,2016-02-08 13:14:00,
2016-02-08 05:23:00,29.2,23.1,30.52,North,0,0.0,0.0,78,0.00,,,0.00,WUHU216HW,2016-02-08 13:23:00,
2016-02-08 05:28:00,29.2,23.1,30.52,North,0,0.0,0.0,78,0.00,,,0.00,WUHU216HW,2016-02-08 13:28:00,
2016-02-08 05:33:00,29.2,23.1,30.52,North,0,0.0,0.0,78,0.00,,,0.00,WUHU216HW,2016-02-08 13:33:00,
2016-02-08 05:38:00,29.2,23.1,30.52,North,0,0.0,0.0,78,0.00,,,0.00,WUHU216HW,2016-02-08 13:38:00,
2016-02-08 05:43:00,28.8,22.5,30.52,North,0,0.0,0.0,77,0.00,,,0.00,WUHU216HW,2016-02-08 13:43:00,
2016-02-08 05:48:00,29.0,23.0,30.53,North,0,0.0,0.0,78,0.00,,,0.00,WUHU216HW,2016-02-08 13:48:00,
2016-02-08 05:53:00,29.0,23.3,30.53,North,0,0.0,0.0,79,0.00,,,0.00,WUHU216HW,2016-02-08 13:53:00,
2016-02-08 05:59:00,28.8,23.1,30.53,North,0,0.0,0.0,79,0.00,,,0.00,WUHU216HW,2016-02-08 13:59:00,
2016-02-08 06:04:00,28.8,23.1,30.53,North,0,0.0,0.0,79,0.00,,,0.00,WUHU216HW,2016-02-08 14:04:00,
2016-02-08 06:09:00,28.8,23.1,30.53,North,0,0.0,0.0,79,0.00,,,0.00,WUHU216HW,2016-02-08 14:09:00,
2016-02-08 06:14:00,28.8,23.1,30.53,North,0,0.0,0.0,79,0.00,,,0.00,WUHU216HW,2016-02-08 14:14:00,
2016-02-08 06:19:00,28.8,23.1,30.53,North,0,0.0,0.0,79,0.00,,,0.00,WUHU216HW,2016-02-08 14:19:00,
2016-02-08 06:24:00,28.8,23.1,30.53,North,0,0.0,0.0,79,0.00,,,0.00,WUHU216HW,2016-02-08 14:24:00,
2016-02-08 06:29:00,28.8,23.1,30.53,North,0,0.0,0.0,79,0.00,,,0.00,WUHU216HW,2016-02-08 14:29:00,
2016-02-08 06:34:00,28.8,23.1,30.53,North,0,0.0,0.0,79,0.00,,,0.00,WUHU216HW,2016-02-08 14:34:00,
2016-02-08 06:58:00,29.0,23.9,30.54,North,0,0.0,0.0,81,0.00,,,0.00,WUHU216HW,2016-02-08 14:58:00,
2016-02-08 07:03:00,29.0,23.6,30.54,North,0,0.0,0.0,80,0.00,,,0.00,WUHU216HW,2016-02-08 15:03:00,
2016-02-08 07:13:00,29.3,24.2,30.54,North,0,0.0,0.0,81,0.00,,,0.00,WUHU216HW,2016-02-08 15:13:00,
2016-02-08 07:18:00,29.7,24.6,30.54,North,0,0.0,0.0,81,0.00,,,0.00,WUHU216HW,2016-02-08 15:18:00,
2016-02-08 07:23:00,29.9,24.8,30.54,North,0,0.0,0.0,81,0.00,,,0.00,WUHU216HW,2016-02-08 15:23:00,
2016-02-08 07:28:00,30.1,24.7,30.54,North,0,0.0,0.0,80,0.00,,,0.00,WUHU216HW,2016-02-08 15:28:00,
2016-02-08 07:33:00,30.1,24.7,30.54,North,0,0.0,0.0,80,0.00,,,0.00,WUHU216HW,2016-02-08 15:33:00,
2016-02-08 07:38:00,30.1,24.3,30.54,North,0,0.0,0.0,79,0.00,,,0.00,WUHU216HW,2016-02-08 15:38:00,
2016-02-08 07:43:00,29.9,24.1,30.54,North,0,0.0,0.0,79,0.00,,,0.00,WUHU216HW,2016-02-08 15:43:00,
2016-02-08 07:48:00,30.1,24.7,30.54,North,0,0.0,0.0,80,0.00,,,0.00,WUHU216HW,2016-02-08 15:48:00,
2016-02-08 07:53:00,30.2,24.8,30.54,North,0,0.0,0.0,80,0.00,,,0.00,WUHU216HW,2016-02-08 15:53:00,
2016-02-08 07:58:00,30.4,25.3,30.54,North,0,0.0,0.0,81,0.00,,,0.00,WUHU216HW,2016-02-08 15:58:00,
2016-02-08 08:03:00,30.6,25.5,30.54,North,0,0.0,0.0,81,0.00,,,0.00,WUHU216HW,2016-02-08 16:03:00,
2016-02-08 08:08:00,31.0,26.1,30.54,North,0,0.0,0.0,82,0.00,,,0.00,WUHU216HW,2016-02-08 16:08:00,
2016-02-08 08:13:00,31.1,26.0,30.54,North,0,0.0,0.0,81,0.00,,,0.00,WUHU216HW,2016-02-08 16:13:00,
2016-02-08 08:18:00,31.7,27.5,30.54,North,0,0.0,0.0,84,0.00,,,0.00,WUHU216HW,2016-02-08 16:18:00,
2016-02-08 08:23:00,32.0,27.6,30.54,North,0,0.0,0.0,83,0.00,,,0.00,WUHU216HW,2016-02-08 16:23:00,
2016-02-08 08:28:00,32.6,28.0,30.54,North,0,0.0,0.0,83,0.00,,,0.00,WUHU216HW,2016-02-08 16:28:00,
2016-02-08 08:33:00,32.8,27.9,30.54,North,0,0.0,0.0,82,0.00,,,0.00,WUHU216HW,2016-02-08 16:33:00,
2016-02-08 08:38:00,32.8,27.5,30.54,North,0,0.0,0.0,81,0.00,,,0.00,WUHU216HW,2016-02-08 16:38:00,
2016-02-08 08:43:00,32.9,27.7,30.54,North,0,0.0,0.0,81,0.00,,,0.00,WUHU216HW,2016-02-08 16:43:00,
2016-02-08 08:48:00,33.3,28.1,30.54,North,0,0.0,0.0,81,0.00,,,0.00,WUHU216HW,2016-02-08 16:48:00,
2016-02-08 08:58:00,33.7,28.7,30.54,North,0,0.0,0.0,82,0.00,,,0.00,WUHU216HW,2016-02-08 16:58:00,
2016-02-08 09:03:00,34.0,28.7,30.54,North,0,0.0,0.0,81,0.00,,,0.00,WUHU216HW,2016-02-08 17:03:00,
2016-02-08 09:08:00,34.4,29.1,30.54,North,0,0.0,0.0,81,0.00,,,0.00,WUHU216HW,2016-02-08 17:08:00,
2016-02-08 09:13:00,34.9,29.6,30.54,North,0,0.0,0.0,81,0.00,,,0.00,WUHU216HW,2016-02-08 17:13:00,
2016-02-08 09:18:00,35.3,30.0,30.54,North,0,0.0,0.0,81,0.00,,,0.00,WUHU216HW,2016-02-08 17:18:00,
2016-02-08 09:23:00,35.8,30.5,30.54,North,0,0.0,0.0,81,0.00,,,0.00,WUHU216HW,2016-02-08 17:23:00,
2016-02-08 09:28:00,36.4,30.8,30.54,North,0,0.0,0.0,80,0.00,,,0.00,WUHU216HW,2016-02-08 17:28:00,
2016-02-08 09:38:00,37.4,31.9,30.54,North,0,0.0,0.0,80,0.00,,,0.00,WUHU216HW,2016-02-08 17:38:00,
2016-02-08 09:47:00,38.2,32.0,30.54,North,0,0.0,0.0,78,0.00,,,0.00,WUHU216HW,2016-02-08 17:47:00,
2016-02-08 09:52:00,38.7,32.5,30.54,North,0,0.0,0.0,78,0.00,,,0.00,WUHU216HW,2016-02-08 17:52:00,
2016-02-08 10:02:00,39.2,32.7,30.54,North,0,0.0,0.0,77,0.00,,,0.00,WUHU216HW,2016-02-08 18:02:00,
2016-02-08 10:07:00,39.6,32.9,30.54,North,0,0.0,0.0,77,0.00,,,0.00,WUHU216HW,2016-02-08 18:07:00,
2016-02-08 10:12:00,40.0,32.9,30.54,North,0,0.0,0.0,76,0.00,,,0.00,WUHU216HW,2016-02-08 18:12:00,
2016-02-08 10:17:00,40.7,33.3,30.54,North,0,0.0,0.0,75,0.00,,,0.00,WUHU216HW,2016-02-08 18:17:00,
2016-02-08 10:22:00,41.2,33.5,30.54,North,0,0.0,0.0,74,0.00,,,0.00,WUHU216HW,2016-02-08 18:22:00,
2016-02-08 10:27:00,41.4,33.4,30.54,North,0,0.0,0.0,73,0.00,,,0.00,WUHU216HW,2016-02-08 18:27:00,
2016-02-08 10:32:00,41.8,33.4,30.53,North,0,0.0,0.0,72,0.00,,,0.00,WUHU216HW,2016-02-08 18:32:00,
2016-02-08 10:37:00,42.5,34.1,30.53,North,0,0.0,0.0,72,0.00,,,0.00,WUHU216HW,2016-02-08 18:37:00,
2016-02-08 10:47:00,43.4,34.7,30.53,North,0,0.0,0.0,71,0.00,,,0.00,WUHU216HW,2016-02-08 18:47:00,
2016-02-08 10:52:00,43.6,34.5,30.53,North,0,0.0,0.0,70,0.00,,,0.00,WUHU216HW,2016-02-08 18:52:00,
2016-02-08 10:57:00,44.3,34.7,30.53,North,0,0.0,0.0,69,0.00,,,0.00,WUHU216HW,2016-02-08 18:57:00,
2016-02-08 11:02:00,44.5,34.6,30.53,North,0,0.0,0.0,68,0.00,,,0.00,WUHU216HW,2016-02-08 19:02:00,
2016-02-08 11:07:00,44.6,34.3,30.52,North,0,0.0,0.0,67,0.00,,,0.00,WUHU216HW,2016-02-08 19:07:00,
2016-02-08 11:12:00,45.0,34.7,30.52,North,0,0.0,0.0,67,0.00,,,0.00,WUHU216HW,2016-02-08 19:12:00,
2016-02-08 11:17:00,45.5,34.8,30.52,North,0,0.0,0.0,66,0.00,,,0.00,WUHU216HW,2016-02-08 19:17:00,
2016-02-08 11:22:00,46.3,35.5,30.52,North,0,0.0,0.0,66,0.00,,,0.00,WUHU216HW,2016-02-08 19:22:00,
2016-02-08 11:27:00,46.8,35.2,30.52,North,0,0.0,0.0,64,0.00,,,0.00,WUHU216HW,2016-02-08 19:27:00,
2016-02-08 11:32:00,47.0,35.0,30.52,North,0,0.0,0.0,63,0.00,,,0.00,WUHU216HW,2016-02-08 19:32:00,
2016-02-08 11:37:00,47.5,35.6,30.52,North,0,0.0,0.0,63,0.00,,,0.00,WUHU216HW,2016-02-08 19:37:00,
2016-02-08 11:42:00,48.2,35.5,30.51,North,0,0.0,0.0,61,0.00,,,0.00,WUHU216HW,2016-02-08 19:42:00,
2016-02-08 11:47:00,48.2,35.5,30.51,North,0,0.0,0.0,61,0.00,,,0.00,WUHU216HW,2016-02-08 19:47:00,
2016-02-08 11:52:00,48.6,35.8,30.51,North,0,0.0,0.0,61,0.00,,,0.00,WUHU216HW,2016-02-08 19:52:00,
2016-02-08 11:57:00,49.0,35.7,30.51,North,0,0.0,0.0,60,0.00,,,0.00,WUHU216HW,2016-02-08 19:57:00,
2016-02-08 12:02:00,49.7,36.4,30.50,North,0,0.0,0.0,60,0.00,,,0.00,WUHU216HW,2016-02-08 20:02:00,
2016-02-08 12:07:00,50.2,36.0,30.50,North,0,0.0,0.0,58,0.00,,,0.00,WUHU216HW,2016-02-08 20:07:00,
2016-02-08 12:17:00,50.6,35.4,30.49,North,0,0.0,0.0,56,0.00,,,0.00,WUHU216HW,2016-02-08 20:17:00,
2016-02-08 12:22:00,50.8,36.0,30.49,North,0,0.0,0.0,57,0.00,,,0.00,WUHU216HW,2016-02-08 20:22:00,
2016-02-08 12:27:00,51.1,35.9,30.49,North,0,0.0,0.0,56,0.00,,,0.00,WUHU216HW,2016-02-08 20:27:00,
2016-02-08 12:32:00,51.3,36.6,30.49,North,0,0.0,0.0,57,0.00,,,0.00,WUHU216HW,2016-02-08 20:32:00,
2016-02-08 12:37:00,51.8,36.1,30.49,North,0,0.0,0.0,55,0.00,,,0.00,WUHU216HW,2016-02-08 20:37:00,
2016-02-08 12:42:00,52.2,35.1,30.49,North,0,0.0,0.0,52,0.00,,,0.00,WUHU216HW,2016-02-08 20:42:00,
2016-02-08 12:47:00,52.2,35.1,30.49,North,0,0.0,0.0,52,0.00,,,0.00,WUHU216HW,2016-02-08 20:47:00,
2016-02-08 12:59:00,54.0,36.7,30.47,North,0,0.0,0.0,52,0.00,,,0.00,WUHU216HW,2016-02-08 20:59:00,
2016-02-08 13:14:00,54.4,36.5,30.47,North,0,0.0,0.0,51,0.00,,,0.00,WUHU216HW,2016-02-08 21:14:00,
2016-02-08 13:19:00,54.7,36.9,30.47,North,0,0.0,0.0,51,0.00,,,0.00,WUHU216HW,2016-02-08 21:19:00,
2016-02-08 13:24:00,55.3,36.9,30.47,North,0,0.0,0.0,50,0.00,,,0.00,WUHU216HW,2016-02-08 21:24:00,
2016-02-08 13:29:00,55.4,36.0,30.47,North,0,0.0,0.0,48,0.00,,,0.00,WUHU216HW,2016-02-08 21:29:00,
2016-02-08 13:34:00,55.4,36.6,30.47,North,0,0.0,0.0,49,0.00,,,0.00,WUHU216HW,2016-02-08 21:34:00,
2016-02-08 13:39:00,56.2,36.6,30.47,North,0,0.0,0.0,48,0.00,,,0.00,WUHU216HW,2016-02-08 21:39:00,
2016-02-08 13:44:00,56.9,37.4,30.46,North,0,0.0,0.0,48,0.00,,,0.00,WUHU216HW,2016-02-08 21:44:00,
2016-02-08 13:49:00,57.2,36.5,30.46,North,0,0.0,0.0,46,0.00,,,0.00,WUHU216HW,2016-02-08 21:49:00,
2016-02-08 13:54:00,57.8,37.1,30.46,North,0,0.0,0.0,46,0.00,,,0.00,WUHU216HW,2016-02-08 21:54:00,
2016-02-08 13:59:00,58.0,37.3,30.46,North,0,0.0,0.0,46,0.00,,,0.00,WUHU216HW,2016-02-08 21:59:00,
2016-02-08 14:04:00,58.9,37.4,30.46,North,0,0.0,0.0,45,0.00,,,0.00,WUHU216HW,2016-02-08 22:04:00,
2016-02-08 14:14:00,58.7,36.7,30.45,North,0,0.0,0.0,44,0.00,,,0.00,WUHU216HW,2016-02-08 22:14:00,
2016-02-08 14:19:00,59.2,37.2,30.45,North,0,0.0,0.0,44,0.00,,,0.00,WUHU216HW,2016-02-08 22:19:00,
2016-02-08 14:24:00,59.4,36.8,30.46,North,0,0.0,0.0,43,0.00,,,0.00,WUHU216HW,2016-02-08 22:24:00,
2016-02-08 14:29:00,59.6,36.4,30.45,North,0,0.0,0.0,42,0.00,,,0.00,WUHU216HW,2016-02-08 22:29:00,
2016-02-08 14:34:00,59.8,36.5,30.45,North,0,0.0,0.0,42,0.00,,,0.00,WUHU216HW,2016-02-08 22:34:00,
2016-02-08 14:39:00,59.9,36.7,30.45,North,0,0.0,0.0,42,0.00,,,0.00,WUHU216HW,2016-02-08 22:39:00,
2016-02-08 14:44:00,59.8,35.4,30.45,North,0,0.0,0.0,40,0.00,,,0.00,WUHU216HW,2016-02-08 22:44:00,
2016-02-08 14:49:00,59.4,35.6,30.45,North,0,0.0,0.0,41,0.00,,,0.00,WUHU216HW,2016-02-08 22:49:00,
2016-02-08 14:54:00,59.2,35.5,30.45,North,0,0.0,0.0,41,0.00,,,0.00,WUHU216HW,2016-02-08 22:54:00,
2016-02-08 14:59:00,59.4,35.6,30.44,North,0,0.0,0.0,41,0.00,,,0.00,WUHU216HW,2016-02-08 22:59:00,
2016-02-08 15:04:00,59.4,35.1,30.44,North,0,0.0,0.0,40,0.00,,,0.00,WUHU216HW,2016-02-08 23:04:00,
2016-02-08 15:09:00,59.0,35.3,30.44,North,0,0.0,0.0,41,0.00,,,0.00,WUHU216HW,2016-02-08 23:09:00,
2016-02-08 15:14:00,58.7,35.0,30.44,North,0,0.0,0.0,41,0.00,,,0.00,WUHU216HW,2016-02-08 23:14:00,
2016-02-08 15:19:00,58.9,35.2,30.44,North,0,0.0,0.0,41,0.00,,,0.00,WUHU216HW,2016-02-08 23:19:00,
2016-02-08 15:25:00,58.9,35.2,30.44,North,0,0.0,0.0,41,0.00,,,0.00,WUHU216HW,2016-02-08 23:25:00,
2016-02-08 15:30:00,58.3,34.7,30.44,North,0,0.0,0.0,41,0.00,,,0.00,WUHU216HW,2016-02-08 23:30:00,
2016-02-08 15:35:00,58.0,34.4,30.44,North,0,0.0,0.0,41,0.00,,,0.00,WUHU216HW,2016-02-08 23:35:00,
2016-02-08 15:40:00,57.4,34.5,30.44,North,0,0.0,0.0,42,0.00,,,0.00,WUHU216HW,2016-02-08 23:40:00,
2016-02-08 15:49:00,57.1,34.7,30.44,North,0,0.0,0.0,43,0.00,,,0.00,WUHU216HW,2016-02-08 23:49:00,
2016-02-08 15:55:00,57.1,34.7,30.45,North,0,0.0,0.0,43,0.00,,,0.00,WUHU216HW,2016-02-08 23:55:00,
2016-02-08 15:59:00,56.9,33.9,30.44,North,0,0.0,0.0,42,0.00,,,0.00,WUHU216HW,2016-02-08 23:59:00,
2016-02-08 16:05:00,56.5,34.2,30.44,North,0,0.0,0.0,43,0.00,,,0.00,WUHU216HW,2016-02-09 00:05:00,
2016-02-08 16:09:00,56.2,33.8,30.44,North,0,0.0,0.0,43,0.00,,,0.00,WUHU216HW,2016-02-09 00:09:00,
2016-02-08 16:15:00,55.8,33.5,30.44,North,0,0.0,0.0,43,0.00,,,0.00,WUHU216HW,2016-02-09 00:15:00,
2016-02-08 16:20:00,55.8,34.1,30.44,North,0,0.0,0.0,44,0.00,,,0.00,WUHU216HW,2016-02-09 00:20:00,
2016-02-08 16:24:00,55.6,33.9,30.45,North,0,0.0,0.0,44,0.00,,,0.00,WUHU216HW,2016-02-09 00:24:00,
2016-02-08 16:30:00,55.3,34.1,30.45,North,0,0.0,0.0,45,0.00,,,0.00,WUHU216HW,2016-02-09 00:30:00,
2016-02-08 16:35:00,55.1,33.4,30.45,North,0,0.0,0.0,44,0.00,,,0.00,WUHU216HW,2016-02-09 00:35:00,
2016-02-08 16:40:00,54.9,32.7,30.45,North,0,0.0,0.0,43,0.00,,,0.00,WUHU216HW,2016-02-09 00:40:00,
2016-02-08 16:45:00,54.7,33.1,30.45,North,0,0.0,0.0,44,0.00,,,0.00,WUHU216HW,2016-02-09 00:45:00,
2016-02-08 16:49:00,54.4,32.8,30.45,North,0,0.0,0.0,44,0.00,,,0.00,WUHU216HW,2016-02-09 00:49:00,
2016-02-08 16:54:00,54.2,33.1,30.45,North,0,0.0,0.0,45,0.00,,,0.00,WUHU216HW,2016-02-09 00:54:00,
2016-02-08 17:04:00,53.6,33.2,30.45,North,0,0.0,0.0,46,0.00,,,0.00,WUHU216HW,2016-02-09 01:04:00,
2016-02-08 17:09:00,53.3,33.0,30.45,North,0,0.0,0.0,46,0.00,,,0.00,WUHU216HW,2016-02-09 01:09:00,
2016-02-08 17:14:00,52.9,32.6,30.45,North,0,0.0,0.0,46,0.00,,,0.00,WUHU216HW,2016-02-09 01:14:00,
2016-02-08 17:19:00,52.7,32.4,30.45,North,0,0.0,0.0,46,0.00,,,0.00,WUHU216HW,2016-02-09 01:19:00,
2016-02-08 17:24:00,52.6,32.2,30.45,North,0,0.0,0.0,46,0.00,,,0.00,WUHU216HW,2016-02-09 01:24:00,
2016-02-08 17:29:00,52.4,32.1,30.45,North,0,0.0,0.0,46,0.00,,,0.00,WUHU216HW,2016-02-09 01:29:00,
2016-02-08 17:34:00,52.2,32.5,30.45,North,0,0.0,0.0,47,0.00,,,0.00,WUHU216HW,2016-02-09 01:34:00,
2016-02-08 17:39:00,51.8,32.1,30.45,North,0,0.0,0.0,47,0.00,,,0.00,WUHU216HW,2016-02-09 01:39:00,
2016-02-08 17:44:00,51.5,31.9,30.45,North,0,0.0,0.0,47,0.00,,,0.00,WUHU216HW,2016-02-09 01:44:00,
2016-02-08 17:50:00,51.3,32.2,30.45,North,0,0.0,0.0,48,0.00,,,0.00,WUHU216HW,2016-02-09 01:50:00,
2016-02-08 17:55:00,50.9,32.0,30.45,North,0,0.0,0.0,48,0.00,,,0.00,WUHU216HW,2016-02-09 01:55:00,